[Iaude] MPEC T156: 2023 TS5 [a=2.57,e=0.60,i=0.3,H=27.9]

mpec at marsden.cfa.harvard.edu mpec at marsden.cfa.harvard.edu
Wed Oct 11 13:09:18 EDT 2023


M.P.E.C. 2023-T156                             Issued 2023 October 11, 17:07 UT

     The Minor Planet Electronic Circulars contain information on unusual
         minor planets, routine data on comets and natural satellites,
         and occasional editorial announcements.  They are published
    on behalf of Division F of the International Astronomical Union by the
          Minor Planet Center, Smithsonian Astrophysical Observatory,
                          Cambridge, MA 02138, U.S.A.
			  
             Prepared using the Tamkin Foundation Computer Network

                              MPC at CFA.HARVARD.EDU
            URL https://www.minorplanetcenter.net/    ISSN 1523-6714

                                    2023 TS5                                    


Observations:
     K23T05S*1C2023 10 10.31259602 15 58.367+20 40 18.12         20.52GVET156G96
     K23T05S 1C2023 10 10.31780002 16 10.164+20 41 08.34         20.57GVET156G96
     K23T05S 1C2023 10 10.32818102 16 33.766+20 42 49.36         20.78GVET156G96
     K23T05S KC2023 10 10.35535602 17 35.322+20 47 08.30         21.06GVET156I52
     K23T05S KC2023 10 10.35592402 17 36.578+20 47 13.99         21.26GVET156I52
     K23T05S KC2023 10 10.35706202 17 39.149+20 47 23.68         21.12GVET156I52
     K23T05S KC2023 10 10.45079602 21 11.027+21 01 33.67         20.45GVET156I52
     K23T05S KC2023 10 10.45309502 21 16.211+21 01 54.73         20.81GVET156I52
     K23T05S KC2023 10 10.45849502 21 28.444+21 02 41.35         20.96GVET156I52
     K23T05S KC2023 10 10.46080102 21 33.671+21 03 01.04         20.67GVET156I52
     K23T05S KC2023 10 11.24317202 51 47.974+22 45 31.00         21.02GVET156I52
     K23T05S KC2023 10 11.24576302 51 53.348+22 45 48.74         22.10GVET156I52
     K23T05S KC2023 10 11.24835402 51 58.763+22 46 07.79         20.63GVET156I52
     K23T05S KC2023 10 11.25095702 52 04.235+22 46 26.58         20.73GVET156I52
     K23T05S KC2023 10 11.28064002 53 04.10 +22 49 45.5          20.8 GXET156858
     K23T05S KC2023 10 11.28892702 53 21.15 +22 50 42.5          20.7 GXET156858

Observer details:
858 Tebbutt Observatory, Edgewood.  Observer F. B. Zoltowski.  0.51-m f/8.1
    Schmidt-Cassegrain + CCD.
G96 Mt. Lemmon Survey.  Observer D. Rankin.  Measurers E. C. Beshore, D. Fay,
    J. B. Fazekas, D. C. Fuls, A. R. Gibbs, A. D. Grauer, H. Groeller, J. K.
    Hogan, R. A. Kowalski, S. M. Larson, G. J. Leonard, D. Rankin, R. L.
    Seaman, F. C. Shelly, K. W. Wierzchos.  1.5-m reflector + 10K CCD.
I52 Steward Observatory, Mt. Lemmon Station.  Observer J. B. Fazekas.
    Measurers E. C. Beshore, D. Fay, J. B. Fazekas, D. C. Fuls, A. R. Gibbs,
    A. D. Grauer, H. Groeller, J. K. Hogan, R. A. Kowalski, S. M. Larson, G.
    J. Leonard, D. Rankin, R. L. Seaman, F. C. Shelly, K. W. Wierzchos.  1.0-m
    prime focus + CCD.

Orbital elements:
2023 TS5                                                 Earth MOID = 0.0225 AU
Epoch 2023 Sept. 13.0 TT = JDT 2460200.5                Bell                    
M 352.94507              (2000.0)            P               Q                  
n   0.23967105     Peri.  151.00059     +0.94270966     -0.33359125             
a   2.5668018      Node   228.48685     +0.30506653     +0.86673813             
e   0.6023276      Incl.    0.30001     +0.13502928     +0.37078550             
P   4.11           H   27.99          G   0.15           U   9                  
Residuals in seconds of arc
231010 G96  0.0   0.1-    231010 I52  0.3+  0.4-    231011 I52  0.3-  0.0
231010 G96  0.3-  0.4-    231010 I52  0.1-  0.5+    231011 I52  0.2+  0.1+
231010 G96  0.3+  0.3+    231010 I52  0.3-  0.1+    231011 858  0.3+  0.1+
231010 I52  0.7+  0.6+    231010 I52  0.4-  0.2-    231011 858  0.1+  0.1+
231010 I52  0.3+  0.9+    231011 I52  0.3+  0.4+
231010 I52  0.3+  0.1-    231011 I52  0.3-  0.5-

Ephemeris:
2023 TS5                 a,e,i = 2.57, 0.60, 0                   q = 1.0207
Date    TT    R. A. (2000) Decl.     Delta      r    Elong.  Phase     V
2023 09 11    20 26 42.8 -16 39 56   0.1230  1.1003   137.2    38.5    25.2
...
2023 09 26    21 01 40.5 -12 48 52   0.05968 1.0435   131.7    45.9    23.7
...
2023 10 04    22 34 44.3 -02 03 05   0.03055 1.0268   148.7    30.4    21.8
...
2023 10 10    02 03 11.3 +19 49 04   0.02382 1.0212   159.5    20.1    20.9
2023 10 11    02 42 32.4 +22 18 26   0.02530 1.0209   151.4    27.9    21.3
2023 10 12    03 17 39.1 +23 58 01   0.02739 1.0207   144.4    34.7    21.7
...
2023 10 18    05 17 42.4 +25 34 34   0.04689 1.0232   123.5    54.3    23.4
...
2023 10 26    06 07 56.7 +24 17 41   0.07856 1.0360   120.2    56.1    24.6
...
2023 11 10    06 28 26.3 +23 06 00   0.1401  1.0866   130.5    43.9    25.6

M. P. C. Staff               (C) Copyright 2023 MPC           M.P.E.C. 2023-T156





More information about the Iaude mailing list